Regional Weather Roundup
Issued by NWS

Current Version | Previous Version | Text Only | Print | Product List | Glossary On
Versions: 1 2 3 4 5 6 7 8 9 10 11 12 13 14 15 16 17 18 19 20 21 22 23 24 25 26 27 28
000
ASUS42 KKEY 290710
RWRKEY

FLORIDA REGIONAL WEATHER ROUNDUP FOR THE FLORIDA KEYS
NATIONAL WEATHER SERVICE KEY WEST FLORIDA
300 AM EDT THU SEP 29 2016

...SOUTH FLORIDA AND THE KEYS...

CITY           SKY/WX    TMP DP  RH WIND       PRES   REMARKS
FORT MYERS     CLOUDY    75  72  90 CALM      30.02F
SW REGIONAL AP CLOUDY    76  72  87 CALM      30.02F
NAPLES         CLOUDY    77  72  84 CALM      30.02F
MIAMI          FAIR      78  76  93 S3        30.04F
WEST KENDALL   CLEAR     75  74  96 S6        30.03F
HOMESTEAD      CLEAR     76  76  99 CALM      30.03F
MARATHON       CLEAR     78  74  87 CALM      30.04F
BOCA CHICA NAS PTCLDY    80  74  81 CALM      30.05F
KEY WEST INTL  CLEAR     82  76  81 SW3       30.05F

...INTERNATIONAL WEATHER...

CITY           SKY/WX    TMP DP  RH WIND       PRES   REMARKS
NASSAU BAHAMAS PTCLDY    77  72  83 CALM      30.06S
CANCUN MEXICO  PTCLDY    81  77  89 E6        30.02F
COZUMEL MEXICO PTCLDY    77  70  78 CALM      30.01F

ADJACENT COASTAL WATERS...

STATION/POSITION TIME  SKY/WX   TEMP    WIND        PRES    WAVE
                                AIR SEA DIR/SP/G            HT/PER
                 (UTC)          (F)     (DEG/KT/KT) (MB)    (FT/S)
PULASKI SHOAL LI 0700            83     200/  2/  3 1017.4F
SAND KEY         0650            83     160/  3/  4 1018.2F
LONG KEY         0600            83 85  250/  3/  4 1018.3F
FOWEY ROCKS      0700            82 84  250/  7/  8 1017.8F

$$




USA.gov is the U.S. government's official web portal to all federal, state and local government web resources and services.